Station PSTN6 - 9063028 - Sturgeon Point, NY Image indicating link to RSS feed of recent meteorological observations for station PSTN6


Conditions at PSTN6 as of
(4:18 am EDT)
0818 GMT on 06/21/2024:
     

Click on the graph icon in the table below to see a time series plot of the last five days of that observation.

5-day plot - Atmospheric Pressure Atmospheric Pressure (PRES):30.17 in
5-day plot - Air Temperature Air Temperature (ATMP): 70.9 °F
NOS Water Level Observation Network Water Level
Previous observations
TIME
(EDT)
5-day plot - Wind Direction
WDIR
 
5-day plot - Wind Speed
WSPD
kts
5-day plot - Wind Gust
GST
kts
5-day plot - Wave Height
WVHT
ft
5-day plot - Dominant Wave Period
DPD
sec
5-day plot - Average Wave Period
APD
sec
5-day plot - Mean Wave Direction
MWD
 
5-day plot - Atmospheric Pressure
PRES
in
5-day plot - Pressure Tendency
PTDY
in
5-day plot - Air Temperature
ATMP
°F
5-day plot - Water Temperature
WTMP
°F
5-day plot - Dew Point
DEWP
°F
5-day plot - Salinity
SAL
psu
5-day plot - Visibility
VIS
nmi
5-day plot - Tide (above MLLW)
TIDE
ft
2024-06-21 04:12 am-------30.18- 71.1-----
2024-06-21 04:06 am-------30.18- 71.2-----
2024-06-21 04:00 am-------30.18-0.03 71.4-----
2024-06-21 03:54 am-------30.18- 71.6-----
2024-06-21 03:48 am-------30.18- 72.0-----
2024-06-21 03:42 am-------30.18- 72.0-----
2024-06-21 03:36 am-------30.18- 72.3-----
2024-06-21 03:30 am-------30.19- 72.5-----
2024-06-21 03:24 am-------30.19- 72.5-----
2024-06-21 03:18 am-------30.18- 72.7-----
2024-06-21 03:12 am-------30.19- 73.0-----
2024-06-21 03:06 am-------30.19- 72.9-----
2024-06-21 03:00 am-------30.19-0.03 72.7-----
2024-06-21 02:54 am-------30.19- 72.7-----
2024-06-21 02:48 am-------30.19- 72.9-----
2024-06-21 02:42 am-------30.19- 72.9-----
2024-06-21 02:36 am-------30.19- 72.7-----
2024-06-21 02:30 am-------30.19- 72.9-----
2024-06-21 02:24 am-------30.19- 73.2-----
2024-06-21 02:18 am-------30.19- 73.6-----
2024-06-21 02:12 am-------30.19- 73.4-----
2024-06-21 02:06 am-------30.19- 73.6-----
2024-06-21 02:00 am-------30.19-0.02 73.9-----
2024-06-21 01:54 am-------30.19- 74.1-----
2024-06-21 01:48 am-------30.20- 74.1-----
2024-06-21 01:42 am-------30.20- 74.7-----
2024-06-21 01:36 am-------30.20- 74.5-----
2024-06-21 01:30 am-------30.20- 74.1-----
2024-06-21 01:24 am-------30.20- 74.5-----
2024-06-21 01:18 am-------30.20- 74.5-----
2024-06-21 01:12 am-------30.20- 74.1-----
2024-06-21 01:06 am-------30.20- 73.8-----
2024-06-21 01:00 am-------30.21-0.01 74.1-----
2024-06-21 12:54 am-------30.21- 74.3-----
2024-06-21 12:48 am-------30.21- 74.5-----
2024-06-21 12:42 am-------30.21- 74.8-----
2024-06-21 12:36 am-------30.21- 74.8-----
2024-06-21 12:30 am-------30.21- 75.0-----
2024-06-21 12:24 am-------30.21- 75.0-----
2024-06-21 12:18 am-------30.21- 75.4-----
2024-06-21 12:12 am-------30.21- 75.4-----
2024-06-21 12:06 am-------30.21- 75.4-----
2024-06-21 12:00 am-------30.22+0.00 75.6-----
2024-06-20 11:54 pm-------30.22- 75.4-----
2024-06-20 11:48 pm-------30.22- 75.4-----
2024-06-20 11:42 pm-------30.22- 75.2-----
2024-06-20 11:36 pm-------30.22- 75.6-----
2024-06-20 11:30 pm-------30.22- 75.6-----
2024-06-20 11:24 pm-------30.22- 75.2-----
2024-06-20 11:18 pm-------30.22- 75.0-----
2024-06-20 11:12 pm-------30.22- 75.2-----
2024-06-20 11:06 pm-------30.22- 75.2-----
2024-06-20 11:00 pm-------30.22+0.00 75.6-----
2024-06-20 10:54 pm-------30.21- 75.6-----
2024-06-20 10:48 pm-------30.22- 75.7-----
2024-06-20 10:42 pm-------30.21- 75.7-----
2024-06-20 10:36 pm-------30.21- 75.9-----
2024-06-20 10:30 pm-------30.21- 75.9-----
2024-06-20 10:24 pm-------30.22- 75.9-----
2024-06-20 10:18 pm-------30.22- 76.3-----
2024-06-20 10:12 pm-------30.22- 76.5-----
2024-06-20 10:06 pm-------30.22- 76.8-----
2024-06-20 10:00 pm-------30.22+0.01 76.8-----
2024-06-20 09:54 pm-------30.22- 77.7-----
2024-06-20 09:48 pm-------30.21- 77.9-----
2024-06-20 09:42 pm-------30.22- 77.5-----
2024-06-20 09:36 pm-------30.22- 77.7-----
2024-06-20 09:30 pm-------30.22- 77.7-----
2024-06-20 09:24 pm-------30.22- 77.4-----
2024-06-20 09:18 pm-------30.22- 77.9-----
2024-06-20 09:12 pm-------30.22- 78.3-----
2024-06-20 09:06 pm-------30.21- 79.3-----
2024-06-20 09:00 pm-------30.21+0.00 79.7-----
2024-06-20 08:54 pm-------30.21- 80.2-----
2024-06-20 08:48 pm-------30.20- 79.7-----
2024-06-20 08:42 pm-------30.20- 79.3-----
2024-06-20 08:36 pm-------30.20- 78.6-----
2024-06-20 08:30 pm-------30.20- 78.4-----
2024-06-20 08:24 pm-------30.20- 78.8-----
2024-06-20 08:18 pm-------30.20- 79.7-----
2024-06-20 08:12 pm-------30.21- 79.7-----
2024-06-20 08:06 pm-------30.21- 79.9-----
2024-06-20 08:00 pm-------30.21+0.00 80.1-----
2024-06-20 07:54 pm-------30.21- 79.2-----
2024-06-20 07:48 pm-------30.22- 79.0-----
2024-06-20 07:42 pm-------30.22- 78.8-----
2024-06-20 07:36 pm-------30.22- 78.8-----
2024-06-20 07:30 pm-------30.22- 78.6-----
2024-06-20 07:24 pm-------30.22- 78.6-----
2024-06-20 07:18 pm-------30.22- 79.0-----
2024-06-20 07:12 pm-------30.21- 79.2-----
2024-06-20 07:06 pm-------30.21- 79.3-----
2024-06-20 07:00 pm-------30.21-0.03 79.5-----
2024-06-20 06:54 pm-------30.20- 79.5-----
2024-06-20 06:48 pm-------30.20- 79.5-----
2024-06-20 06:42 pm-------30.20- 79.7-----
2024-06-20 06:36 pm-------30.20- 80.2-----
2024-06-20 06:30 pm-------30.20-------
2024-06-20 06:24 pm-------30.20-------
2024-06-20 06:18 pm-------30.21-------
2024-06-20 06:12 pm-------30.21-------
2024-06-20 06:06 pm-------30.21-------
2024-06-20 06:00 pm-------30.21-0.05 80.1-----
2024-06-20 05:54 pm-------30.21- 80.1-----
2024-06-20 05:48 pm-------30.22- 80.1-----
2024-06-20 05:42 pm-------30.22- 80.1-----
2024-06-20 05:36 pm-------30.22- 79.9-----
2024-06-20 05:30 pm-------30.22- 79.9-----
2024-06-20 05:24 pm-------30.22- 80.2-----
2024-06-20 05:18 pm-------30.22- 79.5-----
2024-06-20 05:12 pm-------30.22- 79.5-----
2024-06-20 05:06 pm-------30.22- 79.7-----
2024-06-20 05:00 pm-------30.22-0.06 80.1-----
2024-06-20 04:54 pm-------30.22- 79.5-----
2024-06-20 04:48 pm-------30.22- 79.3-----
2024-06-20 04:42 pm-------30.22- 79.0-----
2024-06-20 04:36 pm-------30.23- 79.2-----
2024-06-20 04:30 pm-------30.23- 79.2-----
2024-06-20 04:24 pm-------30.23- 79.3-----
2024-06-20 04:18 pm-------30.23- 79.2-----
2024-06-20 04:12 pm-------30.24- 79.0-----
2024-06-20 04:06 pm-------30.24- 79.3-----
2024-06-20 04:00 pm-------30.24-0.05 79.2-----
2024-06-20 03:54 pm-------30.24- 79.2-----
2024-06-20 03:48 pm-------30.24- 79.7-----
2024-06-20 03:42 pm-------30.25- 79.3-----
2024-06-20 03:36 pm-------30.25- 79.7-----
2024-06-20 03:30 pm-------30.25-------
2024-06-20 03:24 pm-------30.25-------
2024-06-20 03:18 pm-------30.26- 80.4-----
2024-06-20 03:12 pm-------30.26- 80.1-----
2024-06-20 03:06 pm-------30.26- 79.5-----
2024-06-20 03:00 pm-------30.26-0.03 79.0-----
2024-06-20 02:54 pm-------30.27- 79.0-----
2024-06-20 02:48 pm-------30.27- 79.5-----
2024-06-20 02:42 pm-------30.27- 80.1-----
2024-06-20 02:30 pm-------30.27- 77.9-----
2024-06-20 02:24 pm-------30.27- 77.4-----
2024-06-20 02:18 pm-------30.28- 77.4-----
2024-06-20 02:12 pm-------30.28- 77.7-----
2024-06-20 02:06 pm-------30.28- 77.9-----
2024-06-20 02:00 pm-------30.28+0.00 77.7-----
2024-06-20 01:54 pm-------30.28- 77.5-----
2024-06-20 01:48 pm-------30.28- 77.4-----
2024-06-20 01:42 pm-------30.28- 77.2-----
2024-06-20 01:36 pm-------30.28- 77.4-----
2024-06-20 01:30 pm-------30.29- 77.7-----
2024-06-20 01:24 pm-------30.29- 77.7-----
2024-06-20 01:18 pm-------30.29- 77.2-----
2024-06-20 01:12 pm-------30.29- 77.7-----
2024-06-20 01:06 pm-------30.29- 78.3-----
2024-06-20 01:00 pm-------30.29+0.01 79.0-----
2024-06-20 12:54 pm-------30.29- 78.1-----
2024-06-20 12:48 pm-------30.29- 76.3-----
2024-06-20 12:42 pm-------30.29- 75.2-----
2024-06-20 12:36 pm-------30.29- 75.0-----
2024-06-20 12:30 pm-------30.29- 75.4-----
2024-06-20 12:24 pm-------30.29- 75.9-----
2024-06-20 12:18 pm-------30.29- 77.2-----
2024-06-20 12:12 pm-------30.29- 75.7-----
2024-06-20 12:06 pm-------30.29- 75.0-----
2024-06-20 12:00 pm-------30.29+0.02 74.8-----
2024-06-20 11:54 am-------30.29- 74.3-----
2024-06-20 11:48 am-------30.29- 74.1-----
2024-06-20 11:42 am-------30.29- 74.1-----
2024-06-20 11:36 am-------30.29- 75.6-----
2024-06-20 11:30 am-------30.29- 77.7-----
2024-06-20 11:24 am-------30.29- 76.3-----
2024-06-20 11:18 am-------30.29- 74.3-----
2024-06-20 11:12 am-------30.28- 74.3-----
2024-06-20 11:06 am-------30.28- 73.8-----
2024-06-20 11:00 am-------30.28+0.02 73.9-----
2024-06-20 10:54 am-------30.28- 73.9-----
2024-06-20 10:48 am-------30.28- 73.6-----
2024-06-20 10:42 am-------30.28- 73.0-----
2024-06-20 10:36 am-------30.28- 73.2-----
2024-06-20 10:30 am-------30.28- 72.7-----
2024-06-20 10:24 am-------30.28- 73.9-----
2024-06-20 10:18 am-------30.27- 73.9-----
2024-06-20 10:12 am-------30.27- 73.9-----
2024-06-20 10:06 am-------30.27- 74.1-----
2024-06-20 10:00 am-------30.27+0.00 73.9-----
2024-06-20 09:54 am-------30.27- 74.8-----
2024-06-20 09:48 am-------30.27- 78.4-----
2024-06-20 09:42 am-------30.27- 78.1-----
2024-06-20 09:36 am-------30.27- 77.4-----
2024-06-20 09:30 am-------30.27- 77.4-----
2024-06-20 09:24 am-------30.27- 77.2-----
2024-06-20 09:18 am-------30.27- 76.8-----
2024-06-20 09:12 am-------30.27- 76.5-----
2024-06-20 09:06 am-------30.27- 76.3-----
2024-06-20 09:00 am-------30.27+0.01 76.1-----
2024-06-20 08:54 am-------30.27- 75.7-----
2024-06-20 08:48 am-------30.26- 75.4-----
2024-06-20 08:42 am-------30.26- 75.0-----
2024-06-20 08:36 am-------30.26- 74.7-----
2024-06-20 08:30 am-------30.26- 74.3-----
2024-06-20 08:24 am-------30.26- 73.9-----
2024-06-20 08:18 am-------30.26- 73.6-----
2024-06-20 08:12 am-------30.26- 73.0-----
2024-06-20 08:06 am-------30.26- 72.5-----
2024-06-20 08:00 am-------30.26-0.02 72.3-----
2024-06-20 07:54 am-------30.27- 72.1-----
2024-06-20 07:48 am-------30.27- 72.0-----
2024-06-20 07:42 am-------30.27- 71.8-----
2024-06-20 07:36 am-------30.27- 71.8-----
2024-06-20 07:30 am-------30.27- 71.6-----
2024-06-20 07:24 am-------30.27- 71.6-----
2024-06-20 07:18 am-------30.27- 71.6-----
2024-06-20 07:12 am-------30.27- 71.8-----
2024-06-20 07:06 am-------30.27- 71.8-----
2024-06-20 07:00 am-------30.27-0.01 71.8-----
2024-06-20 06:54 am-------30.27- 71.8-----
2024-06-20 06:48 am-------30.27- 71.8-----
2024-06-20 06:42 am-------30.27- 71.6-----
2024-06-20 06:36 am-------30.26- 71.6-----
2024-06-20 06:30 am-------30.26- 71.6-----
2024-06-20 06:24 am-------30.26- 71.4-----
2024-06-20 06:18 am-------30.26- 71.4-----
2024-06-20 06:12 am-------30.26- 71.6-----
2024-06-20 06:06 am-------30.26- 71.8-----
2024-06-20 06:00 am-------30.26+0.02 71.6-----
2024-06-20 05:54 am-------30.25- 71.6-----
2024-06-20 05:48 am-------30.25- 71.4-----
2024-06-20 05:42 am-------30.26- 71.4-----
2024-06-20 05:36 am-------30.26- 71.4-----
2024-06-20 05:30 am-------30.26- 71.2-----
2024-06-20 05:24 am-------30.27- 71.2-----
2024-06-20 05:18 am-------30.27- 71.2-----
2024-06-20 05:12 am-------30.28- 71.2-----
2024-06-20 05:06 am-------30.28- 71.2-----
2024-06-20 05:00 am-------30.28+0.05 70.9-----
2024-06-20 04:54 am-------30.28- 70.9-----
2024-06-20 04:48 am-------30.28- 70.9-----
2024-06-20 04:42 am-------30.28- 70.9-----
2024-06-20 04:36 am-------30.29- 70.9-----
2024-06-20 04:30 am-------30.30- 70.9-----
2024-06-20 04:24 am-------30.30- 70.9-----
2024-06-20 04:18 am-------30.30- 70.9-----
2024-06-20 04:12 am-------30.29- 71.1-----
2024-06-20 04:06 am-------30.29- 71.2-----
2024-06-20 04:00 am-------30.28+0.03 71.6-----
2024-06-20 03:54 am-------30.28- 72.3-----